Location: Gülübeli Geçidi
(36.8411°N, 29.7411°E)
Time: 04:52:22
(UTC+00:00)

Cosmos 1606 Rocket - Pass Details

Date: 15 May 2026
Orbit: 595 x 625 km, 82.5° (Epoch: 6 June)

Event Time Altitude Azimuth Distance (km) Brightness Sun altitude
Exits shadow 19:40:18 61° 18° (NNE) 688 3.8 -25.5°
Drops below altitude 10° 19:43:55 10° 9° (N) 1,954 6.7 -25.9°
Sets 19:46:07 0° 8° (N) 2,857 7.6 -26.1°
